Stanley, ND

12:15 PM CDT on March 23, 2017 (GMT -0500)
Stanley

Weather History for K08D - November, 2012

Change the Weather History Date:

Monday, November 12, 2012

  Actual Average (KMIB) Record (KMIB)
Temperature  
Mean Temperature 10 °F -  
Max Temperature 21 °F 34 °F 73 °F (1999)
Min Temperature 0 °F 16 °F -4 °F (1998)
Degree Days  
Heating Degree Days 54    
Moisture  
Dew Point 5 °F    
Average Humidity 85    
Maximum Humidity 93    
Minimum Humidity 78    
Precipitation  
Precipitation 0.00 in - - ()
Sea Level Pressure  
Sea Level Pressure 30.04 in    
Wind  
Wind Speed 13 mph (WSW)    
Max Wind Speed 21 mph    
Max Gust Speed 28 mph    
Visibility 10 miles    
Events      
Averages and records for this station are not official NWS values.
T = Trace of Precipitation, MM = Missing Value Source: NWS Daily Summary

Daily Weather History Graph

Daily Weather History Graph

Search for Another Location

Airport or City:

Trip Planner

Search our weather history database for the weather conditions in past years. The results will help you decide how hot, cold, wet, or windy it might be!

Date:

Astronomy

Nov. 12, 2012 Rise Set
Actual Time 7:53 AM CST 5:13 PM CST
Civil Twilight 7:19 AM CST 5:47 PM CST
Nautical Twilight 6:41 AM CST 6:25 PM CST
Astronomical Twilight 6:04 AM CST 7:02 PM CST
Moon 6:17 AM CST (11/12) 4:22 PM CST (11/12)
Length of Visible Light 10h 28m
Length of Day
9h 20m
Waning Crescent, 2% of the Moon is Illuminated
Nov 12
Waning Crescent
Nov 13
New
Nov 20
First Quarter
Nov 28
Full
Dec 6
Last Quarter

Hourly Weather History & Observations

Time (CST) Temp. Windchill Dew Point Humidity Pressure Visibility Wind Dir Wind Speed Gust Speed Precip Events Conditions
12:55 AM 1.4 °F -17.6 °F -2.2 °F 85% 29.97 in 10.0 mi WNW 15.0 mph 21.9 mph N/A   Clear
1:15 AM 1.4 °F -17.6 °F -2.2 °F 85% 29.97 in 10.0 mi WNW 15.0 mph 21.9 mph N/A   Clear
1:55 AM 1.4 °F -20.5 °F -2.2 °F 85% 29.97 in 10.0 mi WNW 20.7 mph 27.6 mph N/A   Clear
2:15 AM 1.4 °F -19.4 °F -2.2 °F 85% 29.98 in 10.0 mi WNW 18.4 mph 24.2 mph N/A   Clear
2:35 AM 1.4 °F -18.2 °F -2.2 °F 85% 29.99 in 10.0 mi WNW 16.1 mph 24.2 mph N/A   Clear
2:55 AM 1.4 °F -18.8 °F -2.2 °F 85% 29.99 in 10.0 mi WNW 17.3 mph 21.9 mph N/A   Clear
3:15 AM 1.4 °F -18.8 °F -2.2 °F 85% 30.00 in 10.0 mi WNW 17.3 mph 23.0 mph N/A   Clear
3:35 AM 1.4 °F -18.8 °F -2.2 °F 85% 30.01 in 10.0 mi WNW 17.3 mph 23.0 mph N/A   Clear
3:55 AM -0.4 °F -21.2 °F -2.2 °F 92% 30.00 in 10.0 mi WNW 17.3 mph - N/A   Clear
4:15 AM -0.4 °F -20.5 °F -4.0 °F 85% 30.01 in 10.0 mi WNW 16.1 mph - N/A   Clear
4:35 AM -0.4 °F -19.9 °F -2.2 °F 92% 30.02 in 10.0 mi WNW 15.0 mph 24.2 mph N/A   Clear
4:55 AM 1.4 °F -18.2 °F -2.2 °F 85% 30.02 in 10.0 mi WNW 16.1 mph 24.2 mph N/A   Clear
5:15 AM -0.4 °F -20.5 °F -4.0 °F 85% 30.02 in 10.0 mi WNW 16.1 mph - N/A   Clear
5:35 AM -0.4 °F -21.2 °F -2.2 °F 92% 30.02 in 10.0 mi WNW 17.3 mph 24.2 mph N/A   Clear
5:55 AM -0.4 °F -19.9 °F -4.0 °F 85% 30.03 in 10.0 mi WNW 15.0 mph 20.7 mph N/A   Clear
6:15 AM -0.4 °F -20.5 °F -4.0 °F 85% 30.03 in 10.0 mi WNW 16.1 mph - N/A   Clear
6:55 AM -0.4 °F -17.6 °F -4.0 °F 85% 30.04 in 10.0 mi WNW 11.5 mph - N/A   Clear
7:15 AM -0.4 °F -14.7 °F -2.2 °F 92% 30.05 in 10.0 mi West 8.1 mph - N/A   Clear
7:35 AM -0.4 °F -17.6 °F -4.0 °F 85% 30.05 in 10.0 mi West 11.5 mph - N/A   Clear
7:55 AM -0.4 °F -17.6 °F -4.0 °F 85% 30.06 in 10.0 mi West 11.5 mph - N/A   Clear
8:15 AM -0.4 °F -13.4 °F -4.0 °F 85% 30.06 in 10.0 mi WSW 6.9 mph - N/A   Clear
8:35 AM -0.4 °F -15.7 °F -4.0 °F 85% 30.07 in 10.0 mi West 9.2 mph - N/A   Clear
8:55 AM 1.4 °F -14.5 °F -4.0 °F 78% 30.07 in 10.0 mi West 10.4 mph - N/A   Clear
9:15 AM 1.4 °F -13.5 °F -2.2 °F 85% 30.07 in 10.0 mi West 9.2 mph - N/A   Clear
9:55 AM 5.0 °F -9.1 °F -0.4 °F 78% 30.07 in 10.0 mi WSW 9.2 mph - N/A   Scattered Clouds
10:15 AM 6.8 °F -7.8 °F 1.4 °F 79% 30.07 in 10.0 mi WSW 10.4 mph - N/A   Clear
10:35 AM 6.8 °F -5.9 °F 1.4 °F 79% 30.07 in 10.0 mi WSW 8.1 mph - N/A   Clear
10:55 AM 8.6 °F -4.7 °F 3.2 °F 79% 30.07 in 10.0 mi WSW 9.2 mph - N/A   Partly Cloudy
11:15 AM 8.6 °F -6.3 °F 5.0 °F 85% 30.06 in 10.0 mi WSW 11.5 mph - N/A   Clear
11:35 AM 10.4 °F -3.3 °F 5.0 °F 79% 30.07 in 10.0 mi WSW 10.4 mph - N/A   Clear
11:55 AM 10.4 °F -4.1 °F 6.8 °F 85% 30.06 in 10.0 mi WSW 11.5 mph - N/A   Clear
12:15 PM 10.4 °F -4.1 °F 6.8 °F 85% 30.05 in 10.0 mi WSW 11.5 mph - N/A   Clear
12:35 PM 12.2 °F -1.8 °F 8.6 °F 85% 30.05 in 10.0 mi WSW 11.5 mph - N/A   Clear
12:55 PM 14.0 °F -1.4 °F 8.6 °F 79% 30.04 in 10.0 mi WSW 15.0 mph - N/A   Partly Cloudy
1:15 PM 14.0 °F 0.5 °F 8.6 °F 79% 30.04 in 10.0 mi WSW 11.5 mph - N/A   Clear
1:35 PM 14.0 °F 0.5 °F 10.4 °F 86% 30.03 in 10.0 mi WSW 11.5 mph - N/A   Clear
1:55 PM 15.8 °F 2.1 °F 10.4 °F 79% 30.04 in 10.0 mi WSW 12.7 mph - N/A   Clear
2:15 PM 15.8 °F 2.7 °F 10.4 °F 79% 30.04 in 10.0 mi WSW 11.5 mph - N/A   Clear
2:35 PM 15.8 °F 2.1 °F 10.4 °F 79% 30.04 in 10.0 mi WSW 12.7 mph - N/A   Clear
2:55 PM 15.8 °F 2.7 °F 10.4 °F 79% 30.03 in 10.0 mi WSW 11.5 mph - N/A   Clear
3:15 PM 15.8 °F 4.2 °F 10.4 °F 79% 30.03 in 10.0 mi WSW 9.2 mph - N/A   Clear
3:35 PM 15.8 °F 4.2 °F 10.4 °F 79% 30.03 in 10.0 mi WSW 9.2 mph - N/A   Clear
3:55 PM 15.8 °F 5.1 °F 10.4 °F 79% 30.03 in 10.0 mi WSW 8.1 mph - N/A   Clear
4:35 PM 14.0 °F 6.5 °F 10.4 °F 86% 30.05 in 10.0 mi SW 4.6 mph - N/A   Clear
4:55 PM 15.8 °F - 10.4 °F 79% 30.05 in 10.0 mi Calm Calm - N/A   Clear
5:15 PM 14.0 °F 8.2 °F 10.4 °F 86% 30.04 in 10.0 mi SW 3.5 mph - N/A   Clear
5:35 PM 14.0 °F 2.9 °F 10.4 °F 86% 30.04 in 10.0 mi WSW 8.1 mph - N/A   Clear
5:55 PM 14.0 °F 3.9 °F 10.4 °F 86% 30.04 in 10.0 mi West 6.9 mph - N/A   Clear
6:15 PM 14.0 °F 2.0 °F 10.4 °F 86% 30.05 in 10.0 mi WSW 9.2 mph - N/A   Clear
6:35 PM 14.0 °F 8.2 °F 10.4 °F 86% 30.05 in 10.0 mi SW 3.5 mph - N/A   Clear
6:55 PM 12.2 °F -1.8 °F 10.4 °F 92% 30.04 in 10.0 mi WSW 11.5 mph - N/A   Clear
7:15 PM 12.2 °F -1.0 °F 8.6 °F 85% 30.04 in 10.0 mi WSW 10.4 mph - N/A   Clear
7:35 PM 10.4 °F -3.3 °F 8.6 °F 92% 30.04 in 10.0 mi WSW 10.4 mph - N/A   Clear
7:55 PM 10.4 °F -3.3 °F 8.6 °F 92% 30.04 in 10.0 mi WSW 10.4 mph - N/A   Clear
8:15 PM 10.4 °F -4.1 °F 8.6 °F 92% 30.05 in 10.0 mi WSW 11.5 mph - N/A   Clear
8:35 PM 14.0 °F 1.2 °F 10.4 °F 86% 30.05 in 10.0 mi WSW 10.4 mph - N/A   Clear
8:55 PM 14.0 °F 1.2 °F 10.4 °F 86% 30.05 in 10.0 mi SW 10.4 mph - N/A   Clear
9:15 PM 14.0 °F 2.0 °F 12.2 °F 93% 30.05 in 10.0 mi WSW 9.2 mph - N/A   Partly Cloudy
9:35 PM 15.8 °F 5.1 °F 14.0 °F 93% 30.06 in 10.0 mi WSW 8.1 mph - N/A   Mostly Cloudy
9:55 PM 17.6 °F 7.3 °F 15.8 °F 93% 30.06 in 10.0 mi SW 8.1 mph - N/A   Overcast
10:15 PM 19.4 °F 9.5 °F 15.8 °F 86% 30.07 in 10.0 mi WSW 8.1 mph - N/A   Mostly Cloudy
10:35 PM 19.4 °F 8.6 °F 17.6 °F 93% 30.06 in 10.0 mi SW 9.2 mph - N/A   Mostly Cloudy
10:55 PM 19.4 °F 9.5 °F 17.6 °F 93% 30.06 in 10.0 mi SW 8.1 mph - N/A   Overcast
11:15 PM 19.4 °F 11.5 °F 17.6 °F 93% 30.06 in 10.0 mi WSW 5.8 mph - N/A   Overcast
11:35 PM 21.2 °F 10.9 °F 17.6 °F 86% 30.06 in 10.0 mi West 9.2 mph - N/A   Overcast
11:55 PM 21.2 °F 10.1 °F 17.6 °F 86% 30.06 in 10.0 mi West 10.4 mph - N/A   Overcast